Time,TemperatureF,DewpointF,PressureIn,WindDirection,WindDirectionDegrees,WindSpeedMPH,WindSpeedGustMPH,Humidity,HourlyPrecipIn,Conditions,Clouds,dailyrainin,SolarRadiationWatts/m^2,SoftwareType,DateUTC
2013-05-02 00:43:00,78.0,-9.0,-100.00,East,90,14.0,28.0,3,0.00,,,0.00,0.000000,,2013-05-02 04:43:00,
2013-05-02 00:52:00,78.0,-9.0,-100.00,East,90,14.0,28.0,3,0.00,,,0.00,0.000000,,2013-05-02 04:52:00,
2013-05-02 01:42:00,77.0,-10.0,-100.00,ENE,71,13.0,21.0,3,0.00,,,0.00,0.000000,,2013-05-02 05:42:00,
2013-05-02 01:52:00,77.0,-10.0,-100.00,ENE,71,13.0,21.0,3,0.00,,,0.00,0.000000,,2013-05-02 05:52:00,
2013-05-02 02:42:00,73.0,-12.0,-100.00,East,97,7.0,22.0,3,-99.99,,,0.00,0.000000,,2013-05-02 06:42:00,
2013-05-02 02:52:00,73.0,-12.0,-100.00,East,97,7.0,22.0,3,-99.99,,,0.00,0.000000,,2013-05-02 06:52:00,
2013-05-02 03:42:00,67.0,-6.0,-100.00,NNW,342,0.0,10.0,5,-99.99,,,0.00,0.000000,,2013-05-02 07:42:00,
2013-05-02 04:42:00,65.0,-1.0,-100.00,ESE,108,3.0,8.0,7,0.00,,,0.00,0.000000,,2013-05-02 08:42:00,
2013-05-02 04:52:00,65.0,-1.0,-100.00,ESE,108,3.0,8.0,7,0.00,,,0.00,0.000000,,2013-05-02 08:52:00,
2013-05-02 05:42:00,71.0,-3.0,-100.00,ENE,76,31.0,42.0,5,0.00,,,0.00,0.000000,,2013-05-02 09:42:00,
2013-05-02 05:52:00,71.0,-3.0,-100.00,ENE,76,31.0,42.0,5,0.00,,,0.00,0.000000,,2013-05-02 09:52:00,
2013-05-02 06:42:00,69.0,-5.0,-100.00,ENE,75,32.0,48.0,5,-99.99,,,0.00,0.000000,,2013-05-02 10:42:00,
2013-05-02 06:52:00,69.0,-5.0,-100.00,ENE,75,32.0,48.0,5,-99.99,,,0.00,0.000000,,2013-05-02 10:52:00,
2013-05-02 07:42:00,68.0,-5.0,-100.00,ENE,76,29.0,50.0,5,-99.99,,,0.00,0.000000,,2013-05-02 11:42:00,
2013-05-02 07:52:00,68.0,-5.0,-100.00,ENE,76,29.0,50.0,5,-99.99,,,0.00,0.000000,,2013-05-02 11:52:00,
2013-05-02 08:42:00,68.0,-5.0,-100.00,ENE,75,29.0,49.0,5,0.00,,,0.00,0.000000,,2013-05-02 12:42:00,
2013-05-02 08:52:00,68.0,-5.0,-100.00,ENE,75,29.0,49.0,5,0.00,,,0.00,0.000000,,2013-05-02 12:52:00,
2013-05-02 09:42:00,68.0,-5.0,-100.00,ENE,75,28.0,43.0,5,-99.99,,,0.00,3.000000,,2013-05-02 13:42:00,
2013-05-02 09:52:00,68.0,-5.0,-100.00,ENE,75,28.0,43.0,5,-99.99,,,0.00,3.000000,,2013-05-02 13:52:00,
2013-05-02 10:43:00,70.0,-9.0,-100.00,ENE,76,36.0,50.0,4,-99.99,,,0.00,148.000000,,2013-05-02 14:43:00,
2013-05-02 10:52:00,70.0,-9.0,-100.00,ENE,76,36.0,50.0,4,-99.99,,,0.00,148.000000,,2013-05-02 14:52:00,
2013-05-02 11:43:00,72.0,-7.0,-100.00,ENE,76,36.0,54.0,4,0.00,,,0.00,424.000000,,2013-05-02 15:43:00,
2013-05-02 12:32:00,73.0,-12.0,-100.00,ENE,75,38.0,56.0,3,0.00,,,0.00,698.000000,,2013-05-02 16:32:00,
2013-05-02 13:32:00,75.0,-11.0,-100.00,ENE,76,36.0,62.0,3,0.00,,,-99.99,938.000000,,2013-05-02 17:32:00,
2013-05-02 14:42:00,77.0,-18.0,-100.00,ENE,75,32.0,51.0,2,0.00,,,-99.99,1124.000000,,2013-05-02 18:42:00,
2013-05-02 14:52:00,77.0,-18.0,-100.00,ENE,75,32.0,51.0,2,0.00,,,-99.99,1124.000000,,2013-05-02 18:52:00,
2013-05-02 15:42:00,77.0,-18.0,-100.00,ENE,77,29.0,42.0,2,0.00,,,0.00,1240.000000,,2013-05-02 19:42:00,
2013-05-02 16:42:00,81.0,-7.0,-100.00,East,86,22.0,44.0,3,0.00,,,0.00,1274.000000,,2013-05-02 20:42:00,
2013-05-02 16:52:00,81.0,-7.0,-100.00,East,86,22.0,44.0,3,0.00,,,0.00,1274.000000,,2013-05-02 20:52:00,
2013-05-02 17:01:00,81.0,-7.0,-100.00,East,86,22.0,44.0,3,0.00,,,0.00,1274.000000,,2013-05-02 21:01:00,
2013-05-02 17:11:00,81.0,-7.0,-100.00,East,86,22.0,44.0,3,0.00,,,0.00,1274.000000,,2013-05-02 21:11:00,
2013-05-02 17:42:00,79.0,-16.0,-100.00,East,79,31.0,45.0,2,0.00,,,0.00,1236.000000,,2013-05-02 21:42:00,
2013-05-02 17:53:00,79.0,-16.0,-100.00,East,79,31.0,45.0,2,0.00,,,0.00,1236.000000,,2013-05-02 21:53:00,
2013-05-02 18:42:00,80.0,-16.0,-100.00,ENE,77,29.0,43.0,2,0.00,,,0.00,1125.000000,,2013-05-02 22:42:00,
2013-05-02 18:52:00,80.0,-16.0,-100.00,ENE,77,29.0,43.0,2,0.00,,,0.00,1125.000000,,2013-05-02 22:52:00,
2013-05-02 19:02:00,80.0,-16.0,-100.00,ENE,77,29.0,43.0,2,0.00,,,0.00,1125.000000,,2013-05-02 23:02:00,
2013-05-02 19:32:00,82.0,-14.0,-100.00,ENE,75,26.0,42.0,2,0.00,,,0.00,941.000000,,2013-05-02 23:32:00,
2013-05-02 19:42:00,82.0,-14.0,-100.00,ENE,75,26.0,42.0,2,0.00,,,0.00,941.000000,,2013-05-02 23:42:00,
2013-05-02 19:52:00,82.0,-14.0,-100.00,ENE,75,26.0,42.0,2,0.00,,,0.00,941.000000,,2013-05-02 23:52:00,
2013-05-02 20:01:00,82.0,-14.0,-100.00,ENE,75,26.0,42.0,2,0.00,,,0.00,941.000000,,2013-05-03 00:01:00,
2013-05-02 20:11:00,82.0,-14.0,-100.00,ENE,75,26.0,42.0,2,0.00,,,0.00,941.000000,,2013-05-03 00:11:00,
2013-05-02 20:42:00,80.0,-16.0,-100.00,East,80,23.0,39.0,2,0.00,,,0.00,703.000000,,2013-05-03 00:42:00,
2013-05-02 21:32:00,78.0,-17.0,-100.00,ENE,76,26.0,38.0,2,0.00,,,0.00,433.000000,,2013-05-03 01:32:00,
2013-05-02 21:42:00,78.0,-17.0,-100.00,ENE,76,26.0,38.0,2,0.00,,,0.00,433.000000,,2013-05-03 01:42:00,
2013-05-02 21:52:00,78.0,-17.0,-100.00,ENE,76,26.0,38.0,2,0.00,,,0.00,433.000000,,2013-05-03 01:52:00,
2013-05-02 22:11:00,78.0,-17.0,-100.00,ENE,76,26.0,38.0,2,0.00,,,0.00,433.000000,,2013-05-03 02:11:00,
2013-05-02 22:32:00,78.0,-17.0,-100.00,ENE,74,23.0,35.0,2,0.00,,,0.00,57.000000,,2013-05-03 02:32:00,
2013-05-02 23:01:00,78.0,-17.0,-100.00,ENE,74,23.0,35.0,2,0.00,,,0.00,57.000000,,2013-05-03 03:01:00,
2013-05-02 23:11:00,78.0,-17.0,-100.00,ENE,74,23.0,35.0,2,0.00,,,0.00,57.000000,,2013-05-03 03:11:00,
2013-05-02 23:33:00,75.0,-11.0,-100.00,ENE,72,26.0,35.0,3,0.00,,,0.00,4.000000,,2013-05-03 03:33:00,
2013-05-02 23:43:00,75.0,-11.0,-100.00,ENE,72,26.0,35.0,3,0.00,,,0.00,4.000000,,2013-05-03 03:43:00,
2013-05-02 23:53:00,75.0,-11.0,-100.00,ENE,72,26.0,35.0,3,0.00,,,0.00,4.000000,,2013-05-03 03:53:00,